Temperature
23 20 19 20 21 21 22 22 22 23 23 22 22 22 22 22 22 21 21 21 21 20 20 20 20 19 19 19 19 18 18 18 17 17 16 16 16 16 16 16 16 16 16 16
20 20 21 22 23 23 22 22 22 22 23 23 21 21 21 21 21 21 21 20 20 20 20 20 19 19 19 18 18 18 18 17 17 17 16 16 16 16 16 16 16 16 16 16
20 21 23 23 23 23 23 22 22 22 22 22 21 21 20 21 21 21 21 20 20 20 20 19 19 19 18 18 18 18 18 17 17 17 16 16 16 16 16 16 16 15 15 15
21 22 23 23 23 23 22 23 24 23 21 19 21 19 19 20 20 20 20 19 19 19 19 19 19 18 18 18 18 17 17 17 16 16 16 16 16 16 16 15 15 15 15 15
21 22 22 23 24 24 23 24 23 23 21 19 19 19 19 19 19 19 19 19 19 19 19 19 19 18 18 18 17 17 17 17 16 16 16 16 16 16 15 15 15 15 15 15
22 23 23 24 24 25 24 23 22 20 18 19 19 19 18 18 19 19 19 19 19 19 18 18 18 18 18 17 17 17 16 16 16 16 16 16 16 15 15 15 15 15 15 15
22 23 23 24 23 23 23 20 19 19 18 18 19 19 18 19 19 19 19 19 19 19 18 18 18 18 18 17 17 17 17 16 16 16 15 15 15 15 15 15 15 15 15 15
20 21 23 23 23 22 21 20 19 19 18 18 19 18 18 19 19 19 19 19 18 18 18 18 18 18 18 17 17 17 16 16 16 16 15 15 15 15 15 15 15 15 15 15
20 21 23 24 24 23 22 20 19 18 18 18 18 18 18 18 18 18 18 18 18 18 18 18 18 18 18 17 17 17 16 16 16 16 15 15 15 15 15 15 15 15 15 15
21 21 22 23 23 22 21 20 18 18 18 18 19 18 18 18 18 17 17 17 17 18 18 18 18 17 17 17 17 17 16 16 16 15 15 15 15 15 15 15 15 15 15 15
20 20 21 21 22 21 21 20 18 17 17 18 18 18 18 17 17 17 17 17 17 17 18 18 17 17 17 17 17 16 16 16 15 15 15 15 15 15 15 15 15 14 14 14
20 18 18 20 21 22 21 20 18 18 17 17 17 17 19 17 17 17 17 17 17 18 18 18 17 17 17 16 16 16 16 15 15 15 15 15 15 15 14 14 14 14 14 14
20 17 18 19 19 20 20 20 19 17 16 16 16 17 18 17 17 17 17 17 17 17 17 17 17 17 17 16 16 16 15 15 15 15 15 15 14 14 14 14 14 14 14 14
20 17 17 18 19 19 20 20 19 17 16 17 17 17 18 17 17 17 17 17 17 17 17 17 17 16 16 16 16 16 15 15 15 15 15 15 14 14 14 14 14 14 14 14
18 18 18 19 20 20 20 20 20 19 18 17 17 17 17 17 17 17 17 17 17 16 17 17 17 16 16 16 16 16 15 15 15 14 14 14 14 14 14 14 14 14 14 14
17 18 18 19 20 20 20 20 20 20 19 18 18 18 17 17 18 17 17 17 17 16 16 17 17 16 16 16 15 15 15 15 15 14 14 14 14 14 14 14 14 14 14 13
16 17 17 17 19 19 18 19 20 19 19 18 18 17 17 17 17 17 17 17 17 17 17 17 17 16 16 16 16 15 15 15 14 14 14 14 14 14 14 14 14 13 13 13
16 16 15 16 17 17 18 19 20 19 18 18 17 17 17 17 17 18 18 17 17 17 17 17 17 16 16 16 15 15 15 14 14 14 14 14 14 13 13 13 13 13 13 13
16 16 15 15 16 17 18 19 19 18 17 17 17 17 17 17 17 17 18 18 18 17 17 17 17 16 16 16 15 15 14 14 14 14 14 14 13 13 13 13 13 13 13 13
16 15 15 15 16 16 17 18 19 18 16 17 17 16 16 16 15 15 17 18 18 17 17 17 17 16 16 15 15 15 14 14 14 14 13 13 13 13 13 13 13 13 13 13
15 15 15 15 15 15 17 18 19 17 16 17 17 16 16 15 15 17 17 18 18 17 17 17 16 16 16 15 15 15 14 14 14 14 13 13 13 13 13 13 13 13 13 13
15 14 14 14 14 15 16 17 16 15 16 17 17 17 16 17 17 17 17 17 17 17 17 16 16 16 15 15 15 15 14 14 14 13 13 13 13 13 13 13 13 13 12 12
14 13 13 13 14 14 16 16 17 17 16 16 17 17 17 16 16 16 16 16 16 16 16 16 16 15 15 15 15 15 14 14 14 13 13 13 13 13 13 13 13 12 12 12
14 13 13 13 14 14 16 16 16 17 17 17 17 17 17 16 16 16 16 16 16 16 16 15 15 15 15 15 14 14 14 14 13 13 13 13 13 13 13 12 12 12 12 12
13 13 12 12 13 14 15 15 16 16 16 16 16 16 16 16 16 16 16 15 15 15 15 15 15 15 14 14 14 14 14 13 13 13 13 13 13 13 13 12 12 12 12 12
11 12 12 12 13 12 14 15 15 15 15 16 16 16 16 16 15 15 15 15 15 15 15 15 15 14 14 14 14 14 13 13 13 13 13 13 13 12 12 12 12 12 12 12
Wind_Speed
3 2 6 10 9 9 7 7 8 8 5 1 3 4 3 2 4 6 7 7 6 6 6 7 7 7 7 6 7 7 7 6 5 4 3 3 2 1 1 2 3 4 4 4
1 7 12 9 8 8 8 9 9 6 5 2 2 3 2 1 3 7 8 8 7 5 5 6 6 6 5 6 7 7 6 6 5 4 3 2 2 2 2 1 2 3 4 4
9 9 8 7 8 9 10 9 8 6 4 2 1 4 3 3 0 3 6 8 8 10 9 7 7 5 6 5 6 6 6 5 5 4 3 3 3 2 2 1 1 1 3 4
7 9 7 8 10 9 9 9 6 3 1 3 1 2 6 4 3 3 5 7 9 9 9 9 8 7 7 6 5 5 5 4 3 4 4 4 3 2 2 2 1 1 1 2
8 6 7 10 11 9 9 6 3 2 2 1 1 2 6 3 3 4 5 7 7 9 10 9 9 9 8 7 6 5 5 4 3 3 4 4 3 2 2 2 2 1 1 1
10 7 7 9 10 7 5 2 4 4 3 2 4 3 5 4 5 4 4 6 7 8 8 8 8 8 7 6 6 6 6 4 3 4 4 4 4 3 4 3 2 1 0 0
7 8 7 4 4 5 1 2 3 4 2 5 2 3 5 5 4 4 5 6 7 8 8 9 8 9 8 7 7 6 6 5 4 4 3 3 4 4 4 3 3 2 1 0
5 7 5 3 5 5 5 7 6 5 5 4 1 3 4 4 2 1 3 6 6 7 7 9 9 10 9 9 7 7 7 5 4 4 3 3 4 3 3 3 3 3 2 2
5 6 3 4 3 4 2 3 7 6 1 1 2 2 4 3 2 2 3 5 5 6 7 8 8 9 9 9 8 8 7 6 5 5 4 3 3 3 3 3 3 2 2 2
5 3 4 3 0 1 4 3 4 4 2 2 2 2 3 3 2 0 2 4 5 4 4 6 7 7 7 8 7 6 6 6 4 4 4 4 3 3 3 3 3 3 3 2
4 4 4 2 2 3 2 2 3 3 4 4 3 5 4 7 5 4 4 4 4 5 5 5 5 6 6 6 6 6 5 4 4 4 3 3 2 2 2 2 3 3 3 4
3 4 2 4 4 3 4 5 5 4 3 3 3 5 4 6 5 5 4 3 3 4 5 6 6 6 6 6 6 5 4 4 4 4 3 3 3 3 2 2 2 2 3 3
4 5 2 5 5 3 1 2 3 5 4 4 4 5 2 3 3 3 4 4 4 4 5 5 6 6 6 6 6 5 5 5 4 4 4 3 2 2 2 2 2 2 2 3
5 4 5 6 6 4 3 2 2 5 4 4 5 5 4 3 4 3 4 5 5 5 6 6 6 6 6 5 5 5 5 4 4 4 4 3 3 2 2 1 1 2 2 3
5 3 3 4 4 2 1 2 2 3 5 6 6 6 7 6 6 5 5 6 6 6 5 7 8 7 6 5 4 4 4 4 4 4 4 3 3 2 2 2 2 2 3 3
3 2 1 2 1 1 2 2 2 1 1 4 4 4 5 3 2 2 4 6 6 6 6 7 8 8 7 7 6 5 4 3 4 5 4 4 3 2 2 2 2 1 2 2
2 3 2 2 3 3 2 3 1 1 1 4 5 5 3 2 3 4 5 4 6 6 6 7 8 8 7 7 7 6 5 4 4 4 4 3 4 3 3 2 1 1 2 2
5 3 3 1 2 2 5 2 3 4 3 2 3 3 4 4 3 3 5 5 5 6 7 6 6 6 6 6 5 5 6 5 4 3 3 3 4 3 3 2 2 2 2 2
4 6 4 3 2 3 3 3 0 3 2 2 5 3 3 4 5 3 2 5 6 7 6 6 6 6 6 6 6 6 5 5 5 4 4 4 4 4 3 3 3 3 2 3
4 5 5 3 3 3 4 6 3 5 1 2 3 3 2 4 3 3 2 1 3 4 5 5 5 5 6 6 6 6 5 4 5 5 5 4 4 4 4 5 4 3 3 4
3 2 2 3 2 3 5 6 4 3 4 3 1 2 2 2 3 3 1 1 3 4 4 5 5 5 6 6 6 6 5 5 5 4 4 4 4 4 4 4 3 2 2 2
1 2 1 3 2 4 5 3 1 4 3 1 2 2 3 2 1 2 2 1 2 2 3 4 5 4 4 5 6 6 5 5 4 4 3 3 4 4 3 3 2 2 2 2
1 2 2 3 3 3 1 1 2 4 3 1 2 2 4 3 2 2 2 2 1 2 3 3 4 4 4 5 6 6 4 4 4 3 3 3 3 2 3 3 3 2 2 2
3 3 3 2 1 2 3 3 3 2 2 1 2 2 4 3 3 3 2 2 1 2 3 2 4 4 4 3 4 5 4 4 4 4 3 2 2 2 1 1 2 2 2 2
3 2 3 2 2 4 5 4 3 4 4 3 3 3 3 4 3 3 2 2 2 2 2 3 3 4 4 4 3 3 3 4 4 3 3 2 2 2 1 1 2 3 3 4
2 1 2 3 3 2 3 3 3 4 3 2 3 3 1 2 3 2 2 2 2 2 2 2 2 3 3 3 3 3 3 4 4 3 2 2 2 2 2 2 1 2 2 4
Wind_Direction
231 150 236 237 226 227 247 261 269 264 261 298 255 243 250 181 151 157 161 163 162 161 149 141 148 152 147 143 141 144 146 151 146 141 140 140 146 147 129 160 151 146 143 142
336 246 242 244 247 247 256 261 264 273 267 222 241 272 260 180 175 174 172 164 162 152 131 139 144 137 148 161 151 147 150 154 158 161 163 159 152 164 161 142 128 142 144 149
210 241 248 253 253 251 261 245 244 240 284 345 46 328 294 288 200 148 162 159 160 160 159 163 158 152 149 154 160 156 158 159 156 149 129 109 84 72 69 82 108 151 158 158
229 247 248 259 258 241 258 249 246 243 201 277 129 270 283 263 278 185 174 168 168 161 158 159 158 160 161 159 144 133 139 137 140 138 138 141 141 151 190 176 171 167 163 158
230 223 231 247 251 238 237 247 245 229 178 318 343 154 280 278 258 242 196 179 170 163 160 160 161 162 158 150 141 134 126 121 119 126 141 141 137 156 144 124 128 131 123 149
238 238 227 239 253 248 243 323 5 33 63 294 248 184 260 245 231 229 200 184 173 162 158 156 154 147 141 139 137 133 131 133 136 130 133 140 141 139 126 122 133 142 106 95
264 261 247 233 263 284 288 96 18 350 347 254 233 179 243 260 226 193 200 188 176 167 159 153 152 150 149 150 149 148 147 147 150 143 144 150 153 152 153 155 152 149 144 160
227 265 251 236 208 218 235 162 167 208 226 263 306 215 247 268 268 175 170 168 162 163 163 165 163 161 163 164 162 158 157 156 160 157 164 163 155 157 167 168 159 171 185 193
202 244 256 244 229 179 190 202 178 155 195 220 259 272 297 333 8 64 117 135 145 156 164 173 167 166 165 165 168 167 162 162 170 170 168 169 165 163 172 180 164 169 183 178
169 228 273 271 46 202 156 152 95 117 155 246 266 253 250 255 256 84 136 158 157 151 149 162 163 167 170 169 167 162 162 170 173 175 178 177 176 173 174 169 171 171 177 160
148 163 288 321 182 196 131 99 112 127 153 164 235 261 223 207 213 201 202 180 164 158 161 162 164 163 152 148 149 154 157 163 170 176 177 159 160 171 164 170 188 182 170 159
150 129 241 267 264 191 154 163 151 157 212 167 181 260 251 197 204 196 199 190 166 165 166 162 157 150 145 147 151 151 159 160 160 157 152 156 152 149 150 172 185 174 173 170
129 112 63 344 347 358 72 150 158 140 135 164 177 249 260 170 189 194 190 185 172 164 154 150 146 149 150 148 150 149 149 153 151 143 136 132 136 147 168 179 177 168 170 170
113 115 158 197 230 234 253 264 169 140 161 188 208 221 256 218 213 213 188 172 162 154 154 149 148 154 158 157 155 152 149 155 155 149 149 147 154 165 179 167 166 186 184 172
91 132 183 218 233 214 250 276 220 180 187 181 205 208 232 223 207 197 173 155 142 145 151 153 158 161 163 158 156 159 160 165 163 155 158 172 178 171 155 142 158 175 180 180
75 141 129 302 292 70 14 326 274 209 200 171 164 233 238 212 158 155 156 149 147 157 163 160 159 158 161 163 166 164 161 165 163 169 174 177 170 160 160 171 166 164 186 183
122 119 87 293 321 21 338 284 276 53 159 179 200 221 163 128 154 173 162 159 165 162 156 158 163 166 168 170 167 167 163 162 162 165 176 176 170 167 183 193 169 188 201 188
150 132 130 142 34 226 239 276 127 106 55 84 107 125 152 171 181 168 160 168 171 168 164 164 166 168 169 166 162 157 156 159 165 171 177 180 177 182 194 189 196 213 204 195
160 147 131 133 170 262 294 327 215 128 43 75 120 108 83 100 58 20 178 164 172 175 177 173 171 170 167 164 159 151 154 162 166 180 195 200 193 192 201 211 220 221 207 215
85 111 129 141 155 217 265 312 341 97 40 315 127 133 108 89 86 276 282 172 164 170 171 169 160 153 160 168 158 152 163 168 184 194 202 200 192 193 204 217 224 223 213 217
42 58 128 154 175 260 286 318 18 124 221 271 149 149 122 141 205 226 228 184 185 167 161 158 152 159 170 167 156 159 171 192 202 195 194 195 192 195 203 210 215 222 214 211
157 145 152 140 164 251 306 7 134 203 207 173 119 129 129 127 121 92 79 78 133 138 143 151 151 160 167 162 155 164 189 204 192 183 185 197 204 210 206 200 218 213 194 208
86 171 167 165 199 245 326 137 187 149 121 102 125 138 134 119 131 129 112 104 118 148 161 159 154 154 160 163 161 174 198 185 172 167 182 199 211 221 197 189 200 200 191 202
355 33 84 74 12 333 10 34 36 82 98 112 136 136 124 131 150 142 140 151 144 141 169 168 144 147 164 176 175 186 188 170 160 171 189 198 203 225 219 183 183 184 195 208
317 21 50 57 319 352 1 2 17 25 40 58 76 81 103 120 134 158 169 179 176 165 178 168 162 168 177 180 183 184 176 162 161 173 189 201 197 190 188 204 218 213 220 209
325 160 156 222 244 220 274 310 16 41 26 46 69 45 49 119 144 150 165 178 166 161 152 147 154 170 181 179 182 184 176 163 162 175 192 203 206 204 194 193 310 328 250 233
Height
1487 1494 1497 1493 1491 1492 1492 1494 1494 1488 1481 1484 1486 1485 1481 1481 1482 1484 1485 1485 1486 1487 1489 1490 1492 1494 1496 1497 1497 1499 1500 1501 1502 1502 1503 1504 1504 1505 1506 1506 1507 1507 1508 1508
1492 1494 1485 1483 1483 1486 1489 1493 1491 1486 1479 1482 1486 1485 1481 1480 1480 1482 1483 1483 1485 1487 1488 1490 1492 1493 1495 1495 1496 1498 1499 1500 1501 1502 1502 1503 1504 1504 1505 1505 1506 1506 1507 1507
1491 1485 1478 1480 1483 1485 1486 1489 1487 1486 1482 1481 1486 1491 1486 1481 1480 1481 1481 1480 1481 1483 1486 1488 1490 1491 1492 1494 1495 1497 1498 1499 1500 1501 1501 1502 1503 1504 1504 1504 1505 1505 1506 1506
1483 1477 1477 1479 1480 1480 1487 1475 1476 1479 1489 1497 1492 1507 1491 1483 1482 1480 1480 1480 1480 1481 1483 1485 1488 1489 1491 1493 1494 1496 1498 1498 1499 1500 1501 1501 1501 1502 1503 1503 1504 1504 1505 1505
1479 1473 1475 1477 1474 1472 1475 1469 1472 1477 1487 1496 1494 1504 1497 1484 1485 1480 1478 1479 1478 1479 1481 1483 1485 1487 1489 1491 1493 1495 1497 1498 1498 1499 1500 1501 1501 1502 1503 1503 1503 1504 1504 1505
1471 1467 1469 1469 1465 1466 1466 1471 1476 1483 1492 1506 1497 1503 1501 1488 1482 1479 1477 1477 1477 1478 1480 1483 1484 1486 1488 1490 1492 1494 1495 1496 1497 1498 1499 1500 1501 1501 1502 1502 1502 1503 1503 1504
1474 1468 1464 1463 1467 1466 1469 1486 1504 1508 1512 1508 1493 1498 1496 1480 1476 1475 1475 1475 1475 1477 1479 1481 1483 1485 1487 1489 1491 1492 1493 1494 1496 1497 1498 1499 1500 1501 1501 1501 1502 1503 1503 1503
1483 1480 1464 1461 1465 1470 1471 1480 1503 1514 1514 1506 1494 1497 1489 1476 1473 1471 1471 1472 1474 1476 1477 1479 1481 1483 1486 1488 1490 1491 1492 1493 1495 1496 1497 1498 1499 1500 1501 1501 1502 1502 1502 1502
1478 1476 1459 1457 1457 1462 1470 1477 1478 1495 1500 1506 1501 1493 1483 1475 1473 1472 1471 1472 1473 1475 1477 1479 1481 1483 1485 1487 1489 1490 1491 1493 1494 1495 1496 1497 1498 1499 1500 1501 1501 1502 1502 1502
1466 1474 1463 1456 1456 1458 1463 1469 1483 1495 1505 1509 1501 1496 1491 1480 1477 1474 1474 1474 1474 1475 1478 1480 1482 1483 1485 1486 1488 1490 1491 1492 1493 1494 1495 1497 1498 1498 1499 1500 1501 1501 1501 1501
1461 1473 1469 1463 1464 1466 1466 1473 1481 1491 1494 1504 1509 1500 1476 1476 1474 1474 1474 1474 1475 1475 1477 1479 1480 1482 1484 1486 1487 1488 1490 1491 1492 1493 1495 1496 1497 1498 1498 1499 1499 1500 1500 1500
1459 1471 1478 1469 1458 1456 1461 1468 1478 1491 1495 1495 1501 1496 1469 1470 1470 1471 1472 1473 1474 1475 1476 1477 1480 1482 1483 1485 1486 1487 1488 1490 1491 1492 1493 1495 1496 1496 1497 1497 1498 1499 1499 1499
1457 1471 1484 1480 1473 1465 1464 1465 1470 1479 1489 1495 1499 1491 1468 1468 1468 1469 1471 1471 1472 1473 1475 1477 1479 1480 1482 1484 1485 1486 1488 1489 1490 1491 1492 1493 1494 1495 1495 1496 1497 1498 1498 1498
1452 1468 1479 1484 1478 1469 1468 1464 1465 1475 1488 1489 1485 1480 1472 1469 1469 1468 1469 1469 1470 1472 1474 1476 1477 1479 1481 1482 1484 1485 1487 1488 1489 1490 1491 1492 1492 1493 1493 1494 1495 1496 1496 1496
1454 1467 1467 1466 1461 1460 1462 1463 1462 1467 1471 1478 1476 1474 1469 1467 1466 1467 1468 1468 1470 1471 1473 1474 1476 1478 1480 1481 1483 1484 1486 1487 1488 1489 1490 1491 1491 1492 1492 1493 1494 1494 1494 1494
1457 1464 1465 1466 1460 1460 1462 1461 1460 1461 1463 1466 1468 1470 1463 1463 1465 1466 1467 1467 1469 1470 1472 1473 1475 1477 1478 1480 1481 1483 1485 1486 1487 1488 1489 1489 1490 1491 1491 1492 1492 1492 1492 1493
1459 1464 1471 1474 1464 1464 1472 1464 1461 1461 1460 1462 1468 1466 1462 1463 1464 1464 1465 1467 1468 1469 1470 1472 1473 1474 1476 1478 1480 1481 1483 1485 1486 1486 1487 1488 1488 1489 1489 1490 1490 1490 1490 1490
1458 1465 1473 1476 1474 1482 1471 1458 1457 1459 1461 1459 1461 1461 1460 1461 1462 1462 1464 1465 1467 1469 1470 1471 1472 1474 1476 1477 1479 1480 1482 1483 1484 1485 1486 1486 1487 1487 1487 1487 1488 1488 1488 1488
1451 1460 1471 1478 1481 1476 1464 1458 1458 1461 1465 1461 1461 1461 1461 1461 1462 1464 1464 1464 1465 1467 1468 1470 1471 1473 1475 1476 1478 1479 1480 1482 1482 1483 1484 1484 1485 1485 1485 1486 1486 1486 1486 1486
1452 1457 1468 1475 1479 1481 1469 1457 1455 1459 1469 1462 1460 1461 1461 1462 1468 1467 1464 1463 1465 1467 1468 1469 1470 1472 1474 1475 1476 1477 1478 1479 1480 1481 1482 1483 1483 1483 1483 1484 1484 1484 1484 1484
1462 1465 1469 1474 1479 1474 1462 1456 1455 1470 1472 1462 1460 1460 1461 1463 1465 1465 1464 1464 1464 1466 1467 1468 1470 1471 1472 1473 1475 1475 1476 1477 1478 1479 1480 1481 1481 1481 1482 1482 1482 1482 1482 1482
1466 1469 1472 1475 1480 1479 1460 1458 1462 1464 1460 1460 1460 1460 1461 1462 1463 1463 1463 1463 1464 1464 1466 1467 1468 1469 1471 1472 1473 1474 1475 1475 1477 1478 1478 1479 1479 1480 1480 1480 1480 1480 1479 1479
1464 1466 1468 1471 1474 1466 1461 1460 1459 1459 1459 1459 1459 1459 1460 1461 1461 1462 1462 1463 1463 1464 1465 1466 1467 1468 1470 1471 1472 1472 1473 1474 1475 1476 1477 1477 1478 1478 1478 1477 1477 1477 1477 1476
1464 1462 1465 1468 1467 1465 1462 1460 1459 1459 1459 1459 1459 1459 1459 1460 1460 1461 1461 1462 1462 1463 1464 1465 1466 1467 1468 1470 1471 1471 1472 1472 1473 1474 1475 1475 1475 1475 1475 1475 1475 1475 1474 1474
1467 1465 1468 1469 1468 1465 1463 1462 1461 1459 1459 1459 1459 1458 1458 1459 1460 1460 1461 1461 1462 1462 1463 1464 1464 1465 1466 1468 1469 1469 1470 1470 1471 1472 1472 1473 1473 1473 1473 1473 1473 1472 1472 1472
1468 1469 1470 1471 1467 1467 1465 1463 1461 1460 1459 1459 1458 1458 1458 1458 1458 1459 1460 1461 1461 1461 1461 1462 1463 1464 1465 1466 1467 1467 1468 1468 1468 1469 1469 1470 1470 1471 1471 1471 1470 1470 1470 1470